Helicity
30 32 45 50 58 72 73 78 92 91 41 52 82 76 87 99 114 108 95 78 27 44 138 138 81 121 116 130 133 155 184 122 81 61 61 48 48 57 80 73 61 48 110 94 76
22 42 53 48 59 68 73 70 65 76 89 67 75 67 86 85 113 110 136 68 15 30 85 137 89 94 156 98 172 203 165 98 95 58 61 101 145 47 80 81 67 65 94 92 45
24 47 44 36 37 25 38 58 66 71 75 73 74 68 46 81 128 76 40 29 18 18 51 74 100 93 140 117 112 158 150 113 105 134 142 105 98 61 45 85 66 55 51 65 84
16 17 27 20 33 27 28 37 27 28 25 36 59 50 67 58 145 150 344 110 18 35 37 76 108 115 115 157 75 146 95 202 80 97 224 109 51 52 69 68 62 88 168 111 89
6 31 34 34 23 25 28 35 32 24 23 38 32 42 55 70 73 24 177 248 317 17 41 55 93 90 125 106 124 79 156 168 262 88 134 88 63 66 54 96 167 159 153 106 123
32 23 33 17 24 21 29 19 14 15 16 31 16 35 20 -4 24 50 16 71 333 224 58 64 79 64 105 108 111 97 165 114 165 111 150 96 81 115 105 109 72 80 85 94 113
38 28 17 24 25 17 22 19 3 -9 11 23 21 19 -9 -43 37 41 -36 5 201 337 268 49 61 86 131 122 39 157 78 177 119 125 119 131 92 61 97 86 68 54 66 85 106
34 28 -0 11 24 27 34 9 -6 15 15 5 19 22 25 16 12 -2 60 -36 111 271 248 170 52 152 88 116 105 82 132 105 87 118 103 110 89 14 13 65 72 65 68 73 75
12 11 10 11 26 32 33 16 3 11 16 6 29 37 17 69 8 45 42 -37 26 254 346 108 80 162 80 79 133 101 99 87 36 19 93 80 76 54 71 53 56 59 55 73 75
6 14 16 -7 8 18 29 8 41 19 -0 38 66 66 31 33 61 76 81 -44 4 317 307 92 113 244 155 203 209 92 82 44 71 37 41 50 102 114 140 106 95 95 87 86 77
-2 13 22 -1 7 31 100 54 38 35 47 40 50 21 77 32 48 26 4 -148 -62 153 105 186 293 168 79 56 71 98 44 110 15 107 76 60 57 67 56 64 85 99 68 72 92
13 15 27 25 57 71 70 28 89 98 42 19 8 -1 12 46 42 21 -48 -136 53 124 108 132 68 183 110 54 77 170 115 75 96 114 92 86 57 56 62 50 63 79 96 89 88
21 12 20 43 74 36 38 48 76 36 21 13 22 26 11 -17 27 22 -16 -97 178 67 72 133 149 103 117 95 91 144 148 106 97 85 100 195 95 79 41 49 79 94 78 96 122
9 19 21 13 81 44 53 34 9 -15 20 7 2 -12 -24 -4 5 -18 55 -25 151 65 119 76 117 81 28 90 48 130 163 76 90 82 128 59 146 -21 36 56 64 57 62 82 72
12 22 37 64 100 118 74 50 10 26 17 10 10 27 -2 47 100 116 63 20 109 112 180 147 69 63 22 72 64 157 171 96 59 98 120 62 194 45 64 61 78 99 110 120 129
22 12 54 118 108 64 74 55 67 145 57 103 94 35 46 69 139 54 57 72 73 107 134 120 175 163 93 162 76 154 152 164 153 152 164 68 135 73 33 75 97 117 118 148 155
35 8 96 100 134 98 59 91 188 214 203 204 149 17 58 57 110 28 77 54 15 237 298 199 179 149 117 254 226 171 151 203 187 174 175 150 139 208 133 122 92 97 144 178 161
30 16 131 121 129 108 114 83 38 223 129 93 134 156 -45 71 65 205 85 82 28 189 229 123 139 113 120 174 215 302 176 218 209 168 128 113 155 142 113 120 189 167 164 157 155
65 80 95 147 108 70 92 100 124 159 179 187 142 65 93 37 177 211 137 116 101 59 52 84 122 52 83 185 212 294 213 151 227 266 173 132 158 97 99 129 117 138 136 136 125
65 66 104 77 68 58 59 56 117 118 219 299 145 67 69 64 121 119 99 122 76 57 66 24 57 83 61 83 109 211 166 232 249 124 130 80 91 103 104 126 137 126 111 104 87
68 70 82 44 67 49 56 83 125 124 114 142 59 21 29 59 64 92 97 109 102 80 64 65 30 37 27 48 52 91 131 173 200 228 198 79 114 99 45 98 128 127 117 95 77
49 49 10 57 30 12 51 78 91 80 69 105 121 47 42 54 61 54 42 86 84 74 54 61 43 48 49 49 74 77 93 66 89 59 94 123 56 39 64 139 177 149 104 65 58
40 48 39 47 24 17 25 45 56 39 44 32 39 29 44 31 23 39 40 60 74 66 31 17 26 47 55 35 29 35 40 57 63 66 72 107 35 31 84 76 87 63 46 21 9
27 26 34 19 14 6 27 38 32 24 23 28 32 48 43 44 32 24 26 27 49 51 67 47 31 65 73 68 47 49 31 40 66 79 66 92 36 36 39 27 48 29 7 -9 -22
16 16 22 26 -12 21 11 28 -6 7 21 21 9 32 29 16 18 37 46 26 40 64 64 56 34 43 67 56 47 43 45 29 60 60 110 136 73 35 40 35 39 35 25 11 3
35 15 6 38 -20 -15 6 33 50 19 26 10 8 31 35 22 42 11 29 31 25 42 51 61 36 35 29 26 31 40 36 25 20 19 25 77 100 89 48 47 55 46 24 6 12
43 17 8 12 6 -6 -13 -17 17 37 29 49 36 20 21 37 37 69 70 49 34 35 38 49 35 26 25 15 24 20 9 13 32 42 25 40 45 74 85 61 45 30 27 32 32
Wind_Speed
69 67 69 72 73 72 72 70 69 70 69 71 71 69 68 67 66 67 68 56 51 58 44 50 53 55 54 60 63 63 95 102 99 95 86 65 63 63 60 72 58 47 51 29 21
65 68 69 71 74 75 74 73 74 74 73 70 72 71 70 68 75 87 78 73 61 52 51 53 57 55 60 62 61 69 96 100 84 87 85 74 66 57 57 63 57 55 40 36 29
67 67 67 69 70 74 71 73 73 73 74 73 70 68 66 63 82 92 85 76 59 54 55 53 53 60 68 60 68 73 96 87 79 63 59 66 71 65 61 66 69 63 52 41 40
64 68 69 67 67 66 68 70 69 68 67 66 64 61 56 54 74 43 36 50 69 63 62 53 58 60 75 76 63 78 85 77 68 61 60 65 63 70 62 61 55 50 41 43 44
66 63 63 63 62 64 61 58 58 62 62 59 54 51 51 63 73 59 60 52 59 70 63 56 52 61 74 76 65 80 75 76 67 55 61 60 69 71 64 50 44 42 48 48 46
64 60 58 60 64 62 54 49 51 55 56 53 47 41 48 72 56 62 59 54 53 56 72 63 55 58 71 70 76 60 77 63 73 62 53 58 64 65 67 57 56 57 56 54 52
64 58 54 58 56 51 41 35 43 57 52 52 48 41 54 59 44 38 37 52 57 57 63 72 59 56 58 77 66 65 66 81 70 73 62 61 75 81 70 61 70 68 65 62 60
65 63 58 56 52 42 30 22 32 63 58 51 45 42 57 45 54 67 70 61 69 70 68 69 69 63 62 51 64 73 73 85 85 66 73 61 98 75 72 73 72 67 64 63 63
63 60 59 61 48 38 21 16 39 58 56 48 42 37 58 36 50 51 59 66 61 70 72 61 68 58 62 62 64 73 83 91 74 80 66 67 83 68 51 66 79 78 74 73 68
56 59 56 56 50 45 17 8 48 44 27 25 35 37 49 44 42 52 53 56 61 62 67 70 57 57 68 75 75 73 87 78 85 60 79 78 82 53 56 60 57 59 66 68 70
47 45 56 54 48 48 39 25 16 15 11 8 22 16 36 35 48 46 60 69 67 67 73 62 67 71 59 52 59 68 76 85 64 55 64 89 81 78 65 61 64 68 66 66 68
36 55 56 57 53 51 37 24 27 28 19 18 6 7 46 46 53 54 59 77 81 69 66 62 70 58 65 73 66 62 80 80 60 58 58 69 82 75 68 73 73 70 71 72 72
37 51 55 55 41 49 48 31 32 22 20 18 22 44 54 57 59 59 79 65 82 59 65 66 59 60 62 76 46 71 61 70 65 58 55 62 77 73 69 68 69 65 67 67 65
34 40 51 33 32 36 42 34 32 30 33 27 27 32 39 42 52 64 73 64 66 57 57 62 47 77 78 68 59 44 54 61 57 58 71 58 65 62 57 61 60 55 50 46 47
32 31 36 32 38 44 36 35 34 32 44 16 24 30 37 45 50 63 66 56 53 45 52 51 63 66 81 63 68 40 42 51 51 59 54 60 67 49 46 52 46 41 40 39 38
30 23 25 32 41 39 36 33 30 44 59 32 39 45 54 47 46 52 63 47 39 39 35 37 37 47 58 56 60 27 26 36 44 52 71 59 65 61 51 49 39 35 32 31 32
30 14 25 32 39 40 39 39 61 70 33 38 46 37 44 58 49 57 72 62 50 54 48 39 44 44 44 46 43 30 34 40 54 66 69 50 59 54 39 34 35 33 31 33 32
31 8 30 31 35 37 36 40 82 39 37 29 31 33 47 45 33 58 59 29 39 30 34 44 48 39 43 43 51 39 47 43 52 67 64 43 68 58 34 34 27 31 31 32 33
14 29 29 32 31 31 33 62 55 28 20 22 25 27 35 24 37 42 33 35 32 27 28 33 34 32 35 40 30 45 51 40 41 41 51 51 46 39 36 34 33 33 33 32 34
33 23 32 28 28 28 36 50 40 30 30 30 30 37 33 22 32 36 28 32 32 28 28 24 26 30 27 27 30 39 30 39 42 42 54 51 56 56 35 33 31 33 32 32 35
40 32 33 25 35 29 43 41 37 26 26 25 19 35 30 24 23 22 26 23 25 27 25 21 25 32 31 32 34 36 40 43 42 42 47 43 46 31 21 27 27 27 30 31 34
41 38 25 25 34 24 31 30 28 22 23 24 26 24 24 22 19 24 28 25 21 21 23 26 27 34 36 36 40 42 44 47 45 39 36 38 36 19 14 13 19 26 27 31 35
39 34 28 22 41 30 20 23 20 19 20 21 22 23 26 26 28 23 24 26 30 28 27 22 28 36 40 41 41 46 47 44 39 39 45 41 33 19 7 17 29 33 34 35 37
38 39 36 41 32 18 19 21 26 21 16 22 24 27 27 25 25 30 26 29 28 26 28 29 30 38 42 38 32 43 43 39 39 44 40 44 31 24 22 32 39 38 36 37 39
40 41 38 37 38 29 25 24 25 25 22 24 28 29 33 35 31 31 33 31 29 30 31 31 33 31 33 34 36 39 41 42 47 47 44 36 37 21 15 25 37 35 34 36 41
38 35 33 24 44 39 33 31 29 28 28 27 24 26 30 34 36 39 33 33 31 26 30 32 30 29 37 34 36 41 38 43 49 46 47 45 45 26 30 29 31 37 37 42 42
42 35 27 23 32 37 37 34 35 35 31 30 32 31 29 30 29 27 29 27 28 30 32 34 28 34 37 35 39 45 41 37 38 35 32 42 39 19 29 37 41 42 42 40 38
Wind_Direction
342 338 332 325 321 320 317 315 311 306 301 293 291 291 289 289 287 279 270 271 267 265 275 263 248 250 251 246 245 249 240 240 241 242 245 250 248 251 255 249 257 257 258 274 282
346 342 337 331 325 321 317 313 309 305 301 298 292 289 287 286 280 270 268 261 263 261 262 256 244 243 246 244 243 241 238 238 245 246 247 248 248 249 251 249 249 251 261 268 268
348 344 341 336 331 325 322 317 312 307 301 295 292 290 287 286 277 272 265 253 254 253 257 254 252 240 242 244 240 242 239 241 247 254 250 243 244 251 249 250 247 249 255 262 261
351 346 343 341 339 335 328 323 316 309 305 300 294 289 288 283 267 284 303 257 246 251 249 250 246 238 239 240 242 243 242 247 250 254 250 246 248 246 248 254 253 255 254 261 261
352 351 348 345 342 339 337 334 329 316 309 304 299 291 286 272 267 276 283 273 260 242 243 243 238 238 237 240 245 242 243 244 253 254 250 250 245 244 248 255 257 256 258 260 263
356 354 353 349 344 341 341 340 334 322 311 304 301 296 280 269 283 276 271 266 257 244 240 239 240 237 243 242 238 247 242 247 245 248 250 250 248 246 248 252 252 256 258 260 262
0 359 354 348 345 344 345 347 340 319 311 296 294 295 278 272 290 288 272 261 253 249 244 235 241 234 243 240 243 245 245 244 246 244 250 252 249 245 249 254 253 254 257 259 261
1 358 355 352 347 345 342 339 342 298 295 296 300 294 280 295 286 272 261 255 251 247 245 238 235 243 237 247 241 238 247 241 241 246 247 249 244 252 251 252 254 255 257 260 261
2 359 355 347 342 336 328 342 330 301 296 300 298 294 283 308 285 280 262 246 246 242 243 237 230 238 230 238 236 236 238 239 243 241 247 243 249 254 257 253 254 255 257 259 262
5 0 356 355 352 350 334 328 319 313 339 337 305 300 287 289 299 274 256 236 231 236 230 222 223 228 229 233 232 233 236 241 240 246 241 244 247 256 258 257 258 258 259 260 261
4 1 5 5 5 3 15 21 39 31 349 25 348 324 298 302 289 267 237 214 212 233 214 218 215 221 217 207 242 241 240 239 243 247 246 242 247 251 258 258 257 259 262 262 262
351 9 11 13 24 24 29 50 27 3 12 346 352 328 282 294 260 246 219 210 208 217 209 211 218 224 230 233 238 248 239 236 244 246 252 247 247 253 254 255 258 261 263 263 263
355 11 16 20 40 36 38 53 7 42 78 78 1 295 251 230 225 213 191 203 208 217 206 213 225 223 226 228 236 243 238 235 241 242 252 253 251 251 255 257 258 262 265 266 266
354 11 23 30 61 52 56 76 90 121 112 129 176 200 206 215 206 204 196 199 201 204 202 215 228 219 222 225 229 240 239 240 238 238 244 245 252 248 249 256 258 261 265 269 272
348 9 34 61 65 69 80 99 120 142 92 208 184 188 182 178 181 185 193 201 204 209 211 217 217 218 222 231 223 247 246 236 240 241 245 245 249 251 254 252 254 259 265 269 275
343 6 50 74 75 87 98 110 128 110 99 142 147 147 151 172 179 183 184 198 200 210 212 218 224 231 230 236 234 242 238 240 244 245 244 245 246 251 252 252 252 261 268 274 279
336 343 72 77 74 84 84 99 87 95 137 135 145 154 149 160 166 187 183 184 193 199 198 209 220 236 241 237 234 240 231 238 239 239 243 245 248 262 255 252 254 258 265 272 280
324 74 87 87 87 83 92 104 73 116 133 158 163 156 148 161 200 183 180 161 179 175 191 208 217 241 233 233 233 223 237 243 242 237 241 253 247 253 259 258 262 267 273 277 283
319 87 89 84 95 93 98 79 90 141 172 186 190 176 165 160 171 177 196 201 209 219 216 211 217 238 235 233 239 229 229 254 257 253 247 248 258 268 261 253 260 266 272 278 286
64 96 81 92 101 105 98 94 114 139 156 173 179 178 173 172 178 193 212 216 215 221 226 225 218 220 236 245 252 234 242 248 252 248 249 254 255 256 248 246 258 265 271 280 287
60 72 78 93 96 109 98 112 118 155 170 179 181 179 188 190 198 217 227 234 243 240 252 252 251 228 235 242 240 244 246 249 256 262 255 257 259 270 242 243 253 268 276 283 289
53 61 91 110 96 124 119 131 141 167 196 193 204 206 215 218 228 238 232 247 254 263 265 272 262 244 250 254 249 249 243 242 248 258 267 269 274 274 231 236 263 276 285 285 288
51 62 87 135 65 109 158 162 173 188 196 227 230 236 231 239 239 244 253 247 249 263 275 295 275 253 251 257 256 250 251 255 261 265 253 260 272 267 223 259 278 283 284 285 290
53 56 61 9 359 191 184 186 168 190 250 220 232 230 237 253 260 244 251 244 260 285 293 297 285 265 258 266 272 259 259 262 263 260 266 259 272 265 264 267 275 284 289 289 293
43 51 61 57 359 278 244 232 204 200 234 240 230 241 236 233 246 248 246 257 279 285 287 288 279 284 282 283 278 273 267 261 258 258 262 276 279 284 280 288 290 294 297 296 296
29 38 51 85 352 324 298 294 300 266 255 270 270 268 260 249 250 242 261 273 286 297 283 281 285 292 281 292 290 280 279 266 260 264 270 275 272 302 293 296 298 292 296 294 296
5 14 44 64 33 357 345 305 297 277 304 296 271 275 281 283 283 286 289 296 302 286 277 276 288 281 283 289 287 278 275 269 270 276 271 271 275 306 290 289 287 289 294 299 304